Temperature
17 17 17 17 16 16 16 16 16 15 15 15 15 15 15 15 15 15 15 15 15 15 15 15 15 15 15 15 15 15 15 15 14 14 14 14 14 14 14 14 14 14 14
17 17 17 16 16 16 16 16 16 15 15 15 15 15 15 15 15 15 15 15 15 15 15 15 15 15 15 15 15 15 15 14 14 14 14 14 14 14 14 14 14 14 14
17 17 17 17 16 16 16 16 16 16 15 15 15 15 15 15 15 15 15 15 15 15 15 15 15 15 15 15 15 15 15 15 15 15 15 15 14 14 14 14 14 14 14
17 17 17 17 17 16 16 16 16 16 16 15 15 15 15 15 15 15 15 15 15 15 15 15 15 15 15 15 15 15 15 15 15 15 15 15 14 14 14 14 14 14 14
18 18 17 17 17 16 16 16 16 16 16 16 15 15 15 15 15 15 15 15 15 15 15 15 15 15 15 15 15 15 15 15 15 15 15 14 14 14 14 14 14 13 13
18 18 17 17 17 17 16 16 16 16 16 16 15 15 15 15 15 15 15 15 15 15 15 15 15 15 15 15 15 15 15 15 15 15 15 14 15 15 14 14 14 13 13
18 18 17 17 17 17 17 16 16 16 16 16 16 15 15 15 15 15 15 15 15 15 15 15 15 15 15 15 15 15 15 15 15 15 15 14 14 14 14 14 14 13 13
18 18 18 18 17 17 17 17 17 16 16 16 16 16 16 16 15 15 15 15 15 15 15 15 15 15 15 15 15 14 15 15 14 14 14 14 14 14 14 14 14 13 13
18 18 18 18 17 17 17 17 17 17 16 16 16 16 16 16 16 15 15 15 15 15 15 15 15 15 14 14 14 14 14 14 14 14 14 14 14 14 14 14 14 14 13
19 18 18 18 18 18 17 17 17 17 16 16 16 16 16 16 16 16 15 15 15 15 15 15 15 14 14 14 14 14 14 14 14 14 14 14 14 14 14 13 13 13 13
19 19 18 18 18 17 17 17 17 17 16 16 16 16 16 16 16 16 15 15 15 15 15 15 14 14 14 14 14 14 14 14 14 14 14 14 14 14 13 13 13 13 13
19 19 19 18 18 18 17 17 17 17 17 16 16 16 16 16 16 16 15 15 15 15 15 15 14 14 14 14 14 14 14 14 14 14 14 13 13 13 13 13 13 13 13
19 19 19 18 18 18 17 17 17 17 17 16 16 16 16 16 16 16 15 15 15 15 15 15 15 14 14 14 14 14 14 14 14 14 13 13 13 13 13 13 13 13 13
19 19 19 19 18 18 18 17 17 17 17 17 16 16 16 16 16 16 16 15 15 15 15 15 15 14 14 14 14 14 14 14 14 13 13 13 13 13 13 13 13 12 12
19 19 19 19 18 18 18 17 17 17 17 17 16 16 16 16 16 16 16 15 15 15 15 15 15 14 14 14 14 14 14 14 14 13 13 13 13 13 13 13 12 12 12
19 19 19 19 18 18 18 17 17 17 17 17 17 16 16 16 16 16 15 15 15 15 15 15 15 14 14 14 14 14 14 14 13 13 13 13 13 13 13 12 12 12 12
19 19 19 19 19 18 18 18 17 17 17 17 16 16 16 16 16 16 15 15 15 15 15 15 15 14 14 14 14 14 14 13 13 13 13 13 13 13 13 12 12 12 12
19 19 19 19 19 18 18 18 17 17 17 17 16 16 16 16 16 16 15 15 15 15 15 15 14 14 14 14 14 14 13 13 13 13 13 13 13 13 12 12 12 12 12
19 19 19 19 19 18 18 18 17 17 17 17 16 16 16 16 16 16 15 15 15 15 15 15 14 14 14 14 14 13 13 13 13 13 13 13 13 12 12 12 12 12 12
19 19 19 19 18 18 18 18 17 17 17 17 16 16 16 16 16 16 15 15 15 15 15 15 14 14 14 14 14 13 13 13 13 13 13 13 12 12 12 12 12 12 12
19 19 18 18 18 18 18 17 17 17 17 16 16 16 16 16 16 15 15 15 15 15 15 14 14 14 14 14 14 13 13 13 13 13 13 12 12 12 12 12 11 11 11
18 18 18 18 18 17 17 17 17 17 17 16 16 16 16 15 15 15 15 15 15 15 14 14 14 14 14 14 14 13 13 13 13 13 12 12 12 12 11 11 11 11 11
18 18 18 18 17 17 17 17 17 17 16 16 16 16 16 15 15 15 15 15 14 14 14 14 14 14 14 14 13 13 13 13 13 12 12 12 12 11 11 11 11 11 10
17 17 17 17 17 17 17 17 17 16 16 16 16 16 15 15 15 15 14 14 14 14 14 14 14 14 14 13 13 13 13 12 12 12 12 12 11 11 11 11 10 10 10
17 17 17 17 17 17 16 16 16 16 16 16 15 15 15 15 15 14 14 14 14 14 14 14 13 13 13 13 13 13 12 12 12 12 11 11 11 11 11 10 10 10 10
16 16 16 16 16 16 16 16 16 16 15 15 15 15 15 14 14 14 14 14 14 13 13 13 13 13 13 12 12 12 12 12 12 11 11 11 11 11 10 10 10 10 9
Wind_Speed
3 3 4 5 5 4 4 3 3 2 3 2 2 2 1 2 2 3 5 5 5 5 6 4 4 4 4 4 4 4 5 4 2 4 4 4 5 6 6 6 7 8 9
3 4 5 5 5 5 4 4 3 3 2 2 2 2 2 1 1 2 4 5 5 5 5 5 3 3 4 4 4 3 3 2 3 2 3 3 4 4 5 5 5 6 7
7 6 6 6 6 6 6 5 4 3 3 3 3 3 3 3 3 3 2 3 4 5 5 5 4 3 3 3 3 3 3 2 2 2 3 3 1 1 3 4 5 6 6
7 7 7 7 7 6 5 5 5 4 3 4 4 4 3 1 0 0 1 2 4 5 5 5 5 4 3 3 2 2 2 3 2 2 3 2 3 3 1 3 4 5 6
8 9 9 8 7 6 5 5 5 4 4 4 5 5 3 2 1 1 2 3 3 4 4 4 4 4 3 3 3 3 3 2 2 2 2 3 3 3 3 1 3 4 4
8 8 7 6 5 5 5 4 5 4 4 5 5 5 5 3 3 2 2 1 2 2 3 3 4 3 3 3 3 3 3 3 3 2 2 2 2 2 3 2 1 1 2
8 8 8 8 7 7 6 5 6 5 5 5 5 5 5 5 4 3 2 2 1 1 1 2 2 2 3 3 3 3 3 3 3 3 2 2 2 2 3 4 2 1 2
7 8 9 9 8 8 7 7 7 6 6 6 5 4 4 3 3 3 3 3 2 1 1 2 2 3 3 3 4 3 2 3 3 3 3 3 2 2 2 3 4 2 2
7 8 8 8 8 8 8 8 8 6 6 6 5 4 4 4 4 3 3 2 2 2 2 2 2 3 3 4 4 3 2 3 3 3 3 3 2 2 2 2 3 4 2
6 7 7 8 8 7 6 6 7 7 6 6 6 5 5 4 4 4 4 3 3 2 3 2 2 2 3 3 3 3 2 3 3 2 3 3 2 2 2 2 2 2 4
7 7 7 7 6 5 6 6 6 5 5 6 5 5 4 4 4 4 4 4 3 3 3 3 3 2 2 2 3 2 3 3 2 2 3 2 2 2 2 2 2 2 3
6 6 6 6 6 6 6 6 6 6 6 6 5 5 4 4 4 4 4 4 4 4 3 3 3 3 2 2 3 3 3 3 2 2 2 2 2 2 2 2 2 2 2
4 5 5 6 7 7 7 6 6 6 5 5 5 5 5 5 5 4 4 4 4 4 3 4 3 3 2 2 2 3 3 2 2 2 2 2 3 2 1 2 2 2 2
5 6 6 6 7 7 7 7 6 5 5 5 5 5 6 6 5 5 4 4 5 4 4 4 4 3 3 3 3 3 3 2 2 2 2 2 3 3 3 2 3 3 3
4 6 6 6 6 6 6 6 6 5 6 5 5 5 5 4 4 4 4 4 4 4 4 4 3 3 3 3 4 3 3 3 2 1 1 2 3 4 4 3 4 4 3
5 6 6 6 6 7 7 7 6 6 6 6 6 4 4 4 5 4 4 4 4 4 4 4 4 4 4 5 7 6 4 3 3 2 1 1 1 2 2 3 5 6 5
5 6 7 7 7 8 8 8 8 6 7 6 5 5 5 5 5 5 4 5 5 4 4 4 4 4 5 7 7 7 5 4 3 3 2 1 1 2 2 1 2 2 3
6 6 6 6 6 6 6 6 7 7 7 6 5 5 5 5 4 4 5 5 4 4 4 4 5 4 5 7 7 7 5 4 3 3 3 3 2 2 3 3 2 0 0
5 5 5 5 5 5 6 7 6 6 6 6 6 6 6 5 5 5 5 4 4 4 4 4 5 5 5 7 8 7 4 3 3 3 3 4 3 4 5 4 3 0 1
3 4 4 4 5 5 6 8 7 6 6 7 6 6 6 6 6 6 4 3 4 4 4 4 4 5 5 6 8 8 4 4 3 2 2 4 5 5 5 5 4 3 2
3 4 5 4 4 5 7 7 7 7 7 6 5 5 5 6 5 4 3 3 4 3 3 3 3 4 5 6 7 8 5 5 4 3 3 3 5 6 6 6 5 5 3
3 3 4 3 3 5 7 6 6 6 5 5 5 5 5 5 4 4 3 3 4 4 3 3 2 2 3 5 6 8 8 7 5 4 4 4 5 5 5 4 5 5 3
3 3 4 4 3 4 6 6 5 4 5 5 5 4 4 4 4 5 5 3 4 4 3 3 3 3 2 3 5 6 7 8 5 4 6 5 5 4 3 4 5 4 3
3 3 4 4 2 3 4 5 4 4 6 6 5 5 5 4 4 4 4 4 4 4 4 4 4 3 2 3 2 2 3 4 3 2 3 3 3 2 2 2 2 2 3
2 3 4 4 3 3 3 3 4 5 5 5 5 4 4 5 4 4 4 5 5 6 6 6 5 5 5 6 7 5 4 4 4 3 1 1 1 1 1 1 1 1 2
2 3 3 3 3 2 2 3 4 5 6 5 5 4 4 4 4 4 1 2 3 5 7 7 6 5 7 6 7 8 7 7 8 5 3 3 3 4 4 3 3 2 3
Wind_Direction
220 187 173 158 147 145 143 144 148 147 118 100 92 81 59 30 30 36 51 65 80 95 99 97 90 89 93 100 100 94 82 65 66 77 55 36 41 49 42 39 40 34 35
205 189 173 163 160 161 165 163 173 171 159 138 127 120 113 71 30 26 48 57 71 88 104 102 97 95 98 92 87 95 94 63 45 99 93 44 19 21 31 34 38 29 30
204 193 178 175 169 176 185 183 185 177 168 139 108 82 60 45 31 26 28 27 63 81 95 107 107 99 102 108 101 104 114 115 47 59 125 127 173 349 6 28 35 31 32
201 190 185 183 186 191 185 184 183 177 170 151 138 133 130 130 201 23 39 31 55 73 86 99 104 99 93 103 107 96 106 121 105 58 56 96 141 131 61 6 19 31 37
198 193 193 189 190 184 181 182 175 174 168 162 156 143 134 136 102 81 73 53 45 59 80 96 100 95 92 97 92 90 92 101 121 118 101 80 66 78 120 85 0 18 24
198 193 190 182 185 179 179 174 173 179 170 167 160 158 155 147 128 117 104 71 49 40 62 90 95 98 96 98 99 98 96 93 96 99 106 128 125 124 120 126 85 29 358
187 185 182 186 187 184 185 181 181 189 178 171 170 173 170 166 169 168 160 145 105 63 59 87 98 103 110 111 107 98 93 95 101 106 104 107 120 138 130 126 124 77 358
184 189 190 190 190 189 187 184 188 190 182 176 178 176 173 172 175 169 162 167 166 165 138 116 112 114 114 109 102 89 91 94 97 101 106 99 96 121 136 141 136 101 26
189 191 189 189 190 190 193 190 188 187 186 182 175 175 181 180 177 172 166 168 170 153 133 126 115 106 105 105 100 91 83 87 84 93 103 101 94 105 113 129 140 140 132
191 191 189 191 192 192 190 182 182 187 186 182 182 185 186 187 176 162 170 168 157 138 135 133 129 120 109 107 107 100 88 89 79 94 100 92 91 92 96 113 112 126 144
195 193 190 187 181 176 174 177 180 177 178 182 183 178 183 181 167 169 179 169 154 150 149 146 141 135 128 121 118 116 109 102 84 81 101 90 94 95 87 94 99 103 122
194 188 182 173 171 175 178 181 184 185 187 180 175 180 179 172 172 180 185 168 163 165 163 154 145 142 144 143 139 138 129 129 128 116 110 106 108 95 88 98 104 112 125
183 174 172 177 181 182 183 187 190 191 185 175 174 177 179 179 185 186 181 172 168 164 159 152 157 160 157 154 157 150 147 149 153 149 147 154 132 125 119 115 118 117 114
182 180 185 190 189 185 185 189 195 186 176 171 175 183 190 189 186 178 172 172 170 168 168 168 171 174 171 166 164 152 146 141 140 156 167 169 167 173 164 152 150 133 117
187 189 192 195 191 189 189 190 189 181 174 170 179 192 188 177 168 168 174 174 175 180 177 173 173 175 176 174 167 163 158 155 150 147 186 192 184 186 175 167 167 152 141
205 195 189 189 195 196 195 190 188 182 171 175 186 179 170 166 170 174 173 170 175 175 171 180 179 185 194 180 177 170 167 167 168 186 240 250 196 181 173 171 168 166 163
209 198 193 195 200 200 193 192 187 174 170 176 179 171 171 176 182 179 172 181 182 174 176 185 183 194 206 193 188 185 172 173 186 195 201 192 128 129 122 117 136 168 186
204 203 198 197 195 189 182 175 166 167 171 175 179 178 174 177 175 171 185 189 179 177 185 191 194 199 213 203 196 187 170 174 194 203 198 191 213 185 160 140 109 67 252
201 197 193 187 176 172 170 156 156 163 168 179 186 184 178 174 172 183 194 187 174 183 188 191 193 200 221 210 197 175 160 175 204 214 201 195 212 208 176 151 150 139 311
175 175 166 153 157 167 159 154 162 167 185 193 191 183 177 176 184 194 191 181 177 188 185 195 200 203 218 210 196 177 167 185 210 227 224 215 212 210 189 174 172 195 244
139 144 140 149 168 162 156 163 171 192 199 186 172 167 172 179 182 179 172 170 171 169 183 203 219 216 222 218 207 187 181 192 200 212 232 230 216 211 200 184 187 204 192
113 125 134 146 153 155 159 170 194 202 175 164 165 171 172 175 168 161 164 163 163 169 188 201 236 246 238 218 211 202 200 196 193 211 221 219 204 194 189 185 191 189 162
138 138 137 139 141 157 167 182 204 173 161 159 169 174 168 168 165 166 168 162 167 177 190 192 214 242 243 229 217 211 209 203 200 213 208 202 195 183 183 187 185 174 160
149 144 137 135 156 179 183 191 182 167 166 172 178 174 168 170 167 170 175 177 186 192 195 199 210 223 225 226 221 209 199 193 195 198 183 174 172 165 173 170 165 170 183
162 156 157 168 185 186 192 187 168 162 171 180 182 180 178 176 177 180 192 198 207 203 201 206 202 203 227 233 213 196 199 194 187 157 129 137 161 183 195 186 193 189 183
165 160 164 175 190 179 187 190 178 170 168 178 186 186 182 179 177 176 186 237 224 222 216 212 204 218 224 226 210 205 203 193 174 156 176 199 202 206 210 210 214 210 209
Height
1531 1533 1534 1536 1538 1540 1541 1543 1544 1545 1546 1547 1548 1549 1549 1550 1550 1550 1550 1550 1551 1551 1551 1551 1551 1551 1551 1552 1552 1552 1552 1552 1552 1553 1553 1554 1553 1553 1553 1552 1552 1551 1550
1530 1531 1533 1536 1538 1540 1541 1543 1545 1546 1547 1548 1548 1549 1550 1550 1551 1551 1551 1551 1551 1552 1552 1552 1552 1552 1552 1553 1553 1553 1553 1553 1553 1554 1554 1554 1556 1555 1554 1554 1553 1552 1551
1528 1530 1532 1535 1537 1539 1541 1543 1544 1546 1547 1548 1549 1549 1550 1551 1551 1551 1551 1552 1552 1552 1552 1553 1553 1553 1553 1553 1554 1554 1554 1554 1554 1554 1555 1554 1555 1556 1556 1555 1555 1554 1553
1527 1529 1531 1533 1536 1538 1540 1542 1544 1545 1547 1548 1549 1549 1550 1551 1551 1551 1552 1552 1553 1553 1553 1553 1554 1554 1554 1554 1554 1554 1555 1555 1555 1555 1555 1555 1555 1555 1556 1557 1556 1555 1555
1524 1527 1529 1532 1535 1537 1540 1542 1544 1545 1546 1547 1548 1549 1550 1551 1551 1552 1552 1553 1553 1553 1554 1554 1554 1555 1555 1555 1555 1555 1555 1555 1555 1555 1555 1555 1555 1556 1556 1557 1557 1557 1556
1522 1525 1528 1531 1534 1537 1539 1541 1542 1544 1546 1547 1548 1549 1550 1551 1551 1552 1552 1553 1553 1554 1554 1554 1555 1555 1555 1555 1556 1556 1556 1556 1556 1556 1556 1556 1556 1556 1556 1556 1557 1557 1557
1520 1523 1526 1529 1532 1535 1537 1539 1541 1543 1545 1546 1548 1549 1550 1551 1551 1552 1552 1553 1553 1554 1554 1555 1555 1555 1556 1556 1556 1556 1556 1556 1556 1556 1556 1556 1556 1557 1557 1557 1557 1557 1558
1518 1521 1524 1527 1530 1533 1536 1538 1540 1542 1544 1545 1547 1548 1549 1550 1551 1552 1552 1553 1553 1554 1554 1555 1555 1556 1556 1557 1557 1557 1557 1557 1557 1557 1557 1557 1557 1557 1557 1557 1557 1557 1558
1517 1520 1523 1526 1528 1531 1534 1536 1538 1540 1542 1544 1546 1547 1549 1550 1551 1551 1552 1552 1553 1554 1554 1555 1555 1556 1556 1557 1557 1557 1557 1557 1557 1557 1557 1557 1557 1557 1558 1558 1558 1558 1558
1516 1518 1521 1524 1527 1529 1532 1535 1537 1539 1541 1543 1544 1546 1547 1549 1550 1550 1551 1552 1553 1553 1554 1555 1555 1556 1557 1557 1558 1558 1558 1558 1558 1558 1558 1558 1558 1558 1558 1558 1558 1558 1558
1514 1517 1519 1522 1525 1528 1530 1533 1535 1537 1539 1541 1543 1545 1546 1547 1549 1549 1550 1551 1552 1553 1554 1554 1555 1556 1557 1557 1557 1558 1558 1558 1558 1558 1558 1558 1558 1558 1558 1558 1558 1558 1557
1513 1515 1518 1521 1523 1526 1528 1531 1533 1536 1538 1539 1541 1543 1544 1546 1547 1548 1549 1551 1552 1552 1553 1554 1555 1556 1556 1557 1557 1557 1558 1558 1558 1558 1558 1558 1558 1558 1558 1557 1557 1557 1557
1513 1514 1516 1519 1521 1524 1526 1529 1531 1534 1536 1538 1540 1541 1543 1544 1545 1547 1548 1550 1551 1552 1553 1553 1554 1555 1555 1556 1556 1557 1557 1557 1557 1557 1557 1557 1557 1557 1557 1557 1557 1557 1556
1511 1513 1515 1517 1519 1522 1524 1527 1529 1532 1534 1536 1538 1539 1541 1542 1544 1545 1547 1548 1549 1550 1552 1553 1553 1554 1555 1555 1556 1556 1557 1557 1557 1557 1557 1557 1557 1557 1557 1556 1556 1556 1556
1509 1511 1513 1515 1518 1520 1522 1525 1528 1530 1532 1534 1536 1537 1539 1541 1542 1544 1545 1547 1548 1549 1550 1551 1552 1553 1553 1554 1555 1555 1556 1556 1556 1556 1556 1556 1556 1556 1556 1556 1556 1555 1555
1508 1509 1511 1513 1515 1518 1520 1523 1525 1528 1530 1532 1534 1535 1537 1539 1540 1542 1544 1545 1546 1547 1549 1550 1551 1551 1552 1553 1553 1554 1555 1555 1555 1555 1555 1555 1555 1555 1555 1555 1555 1554 1554
1506 1508 1509 1511 1513 1515 1518 1520 1522 1525 1527 1530 1532 1533 1535 1537 1538 1540 1542 1543 1545 1546 1547 1548 1549 1550 1550 1551 1552 1553 1553 1554 1554 1554 1554 1554 1554 1554 1553 1553 1553 1553 1552
1504 1506 1508 1509 1511 1513 1515 1518 1520 1523 1525 1527 1529 1531 1533 1535 1536 1538 1539 1541 1542 1544 1545 1546 1547 1548 1549 1550 1550 1551 1552 1552 1552 1552 1553 1552 1552 1552 1552 1551 1551 1550 1550
1503 1504 1506 1508 1509 1511 1513 1516 1518 1520 1522 1524 1527 1529 1531 1532 1534 1535 1537 1538 1540 1541 1543 1544 1545 1546 1547 1548 1549 1549 1549 1550 1550 1550 1550 1550 1550 1550 1549 1549 1548 1548 1548
1501 1503 1505 1506 1508 1509 1511 1514 1516 1518 1520 1522 1524 1527 1528 1530 1532 1533 1535 1536 1537 1539 1540 1541 1542 1543 1544 1545 1546 1547 1547 1547 1547 1547 1547 1547 1547 1547 1547 1546 1546 1545 1545
1500 1502 1503 1504 1506 1508 1510 1511 1513 1515 1518 1520 1522 1524 1526 1528 1529 1531 1532 1533 1534 1536 1537 1538 1539 1540 1541 1542 1543 1544 1544 1544 1544 1544 1544 1544 1544 1544 1544 1544 1543 1543 1542
1498 1500 1501 1503 1504 1506 1508 1509 1511 1513 1516 1518 1520 1522 1523 1525 1526 1528 1529 1530 1531 1532 1534 1535 1536 1537 1538 1539 1539 1540 1541 1541 1541 1541 1541 1541 1541 1541 1541 1541 1540 1540 1539
1497 1498 1500 1501 1503 1504 1506 1507 1509 1511 1513 1515 1517 1519 1521 1522 1523 1525 1526 1527 1528 1529 1530 1531 1532 1533 1534 1535 1536 1536 1537 1537 1537 1538 1538 1538 1538 1538 1537 1537 1537 1537 1536
1495 1496 1498 1499 1500 1502 1503 1505 1507 1508 1510 1512 1514 1515 1517 1518 1520 1521 1523 1524 1525 1526 1527 1528 1528 1530 1530 1531 1532 1532 1533 1533 1533 1533 1534 1534 1534 1534 1534 1534 1533 1533 1532
1493 1494 1496 1497 1498 1499 1501 1503 1504 1506 1507 1508 1510 1512 1513 1514 1516 1517 1519 1520 1522 1523 1524 1524 1525 1526 1526 1527 1528 1528 1528 1529 1529 1529 1529 1529 1529 1529 1529 1529 1529 1529 1528
1491 1492 1493 1494 1496 1497 1498 1500 1501 1502 1504 1505 1506 1508 1509 1511 1512 1513 1515 1517 1518 1519 1520 1521 1522 1522 1523 1523 1523 1524 1524 1524 1524 1524 1524 1524 1525 1525 1525 1525 1524 1524 1524